CAPE
0 0 0 0 0 0 0 11 309 842 1434 706 453 133 33 2 1 1 0 0 0 0 0 0 0 0 0 0 0 0 0 0 0 0 0 0 0 0 0 0 0 0 0
0 0 0 0 0 0 0 0 106 408 1535 877 461 164 1 2 1 1 0 0 0 0 0 0 0 0 0 0 0 0 0 0 0 0 0 0 0 0 0 0 0 0 0
0 0 0 0 0 0 0 0 5 233 511 1089 425 96 4 1 2 2 0 0 0 0 0 0 0 0 0 0 0 0 0 0 0 0 0 0 0 0 0 0 0 0 0
0 0 0 0 0 0 0 0 0 1 253 1460 597 184 50 0 1 2 1 0 0 0 0 0 0 0 0 0 0 0 0 0 0 0 0 0 0 0 0 0 0 0 0
0 0 0 0 0 0 0 0 0 0 0 474 921 301 184 27 0 1 2 1 0 0 0 0 0 0 0 0 0 0 0 0 0 0 0 0 0 0 0 0 0 0 0
0 0 0 0 0 0 0 1 0 0 0 0 856 488 185 115 1 0 1 2 1 0 0 0 0 0 0 0 0 0 0 0 0 0 0 0 0 0 0 0 0 0 0
0 0 0 0 0 0 0 0 1 0 0 0 0 226 225 74 0 0 1 2 2 1 0 0 0 0 0 0 0 0 0 0 0 0 0 0 0 0 0 0 0 0 0
0 0 0 0 0 0 1 1 2 0 0 0 0 0 45 63 1 0 1 1 2 0 0 0 0 0 0 0 0 0 0 0 0 0 0 0 0 0 0 0 0 0 0
0 0 0 0 0 0 0 1 3 0 0 0 0 0 0 51 1 0 0 0 0 0 0 0 0 0 0 0 0 0 0 0 0 0 0 0 0 0 0 0 0 0 0
0 0 0 0 0 0 4 1 1 20 3 4 2 0 0 141 12 1 1 1 0 0 0 0 0 0 0 0 0 0 0 0 0 0 0 0 0 0 0 0 0 0 0
0 0 0 0 0 2 8 27 20 5 7 0 0 0 0 15 1 1 2 2 1 0 1 1 0 0 0 0 0 0 0 0 0 0 0 0 0 0 0 0 0 0 0
0 0 0 0 0 0 6 7 13 14 0 0 0 0 0 1 0 3 2 1 1 2 1 1 1 0 0 0 0 0 0 0 0 0 0 0 0 0 0 0 0 0 0
0 0 0 0 0 2 31 11 2 2 0 0 1 0 0 0 1 2 2 2 3 3 1 1 1 0 0 0 0 0 0 0 0 0 0 0 0 0 0 0 0 0 0
0 1 0 12 2 3 12 0 16 0 0 0 1 0 0 0 2 3 3 3 2 2 2 1 2 0 0 0 0 0 0 0 0 0 0 0 0 0 0 0 0 0 0
0 0 6 0 0 0 0 9 51 5 0 0 1 0 0 1 2 2 2 2 2 2 1 2 2 2 1 0 1 1 0 0 0 0 0 0 0 0 0 0 0 0 0
2 0 0 0 0 3 4 3 38 12 0 0 0 1 2 1 1 1 1 1 1 1 1 1 2 1 1 2 1 0 0 0 0 0 0 0 0 0 0 0 0 0 0
10 0 0 2 6 8 8 0 12 7 0 0 0 0 1 1 0 0 0 0 1 1 1 1 1 1 1 1 1 0 0 0 0 0 0 0 0 0 0 0 0 0 0
0 0 0 1 11 2 3 1 10 1 0 0 1 0 0 0 0 0 0 0 0 0 1 0 0 0 0 0 0 0 0 0 0 0 0 0 0 0 0 0 0 0 0
0 0 2 4 1 4 4 3 5 1 0 1 0 0 0 0 0 0 1 1 0 0 1 0 1 1 1 2 0 0 0 0 0 0 0 0 0 0 0 0 0 0 0
0 15 6 7 1 2 3 1 0 3 2 1 1 1 1 1 1 1 1 1 1 1 2 1 0 1 2 1 1 0 0 0 0 0 0 0 0 0 0 0 0 0 0
4 21 7 0 1 2 2 2 2 2 1 1 1 2 2 2 2 1 1 1 2 1 1 1 1 1 2 3 0 0 0 0 0 0 0 0 0 0 0 0 0 0 0
7 19 0 0 0 0 1 1 1 2 1 0 0 1 1 1 1 1 1 1 2 2 3 3 3 2 2 0 0 0 0 0 0 0 0 0 0 0 0 0 0 0 0
26 8 0 0 0 1 2 2 2 1 1 0 0 0 1 1 1 1 2 2 2 3 5 3 3 2 1 1 0 0 0 0 0 1 0 0 0 0 0 0 0 0 0
21 1 0 1 3 1 1 2 1 1 1 0 0 1 1 1 1 2 2 3 2 3 4 2 3 1 1 2 0 0 0 0 0 0 0 0 0 0 0 0 0 0 1
19 0 1 3 3 2 2 1 0 0 0 0 0 1 1 1 1 1 2 2 1 2 3 2 1 2 2 2 1 0 0 0 0 0 0 0 1 0 0 0 0 0 2
0 0 0 3 2 2 2 1 1 0 0 0 0 0 0 1 1 2 1 0 0 0 0 0 0 1 1 0 1 0 0 0 0 0 0 0 0 0 0 0 0 0 0
CIN
-0 -0 -0 -0 -0 -0 -0 -455 -201 -45 -76 -192 -238 -401 -558 -0 -0 -0 -0 -0 -0 -0 -0 -0 -0 -0 -0 -0 -0 -0 -0 -0 -0 -0 -0 -0 -0 -0 -0 -0 -0 -0 -0
-0 -0 -0 -0 -0 -0 -0 -0 -325 -142 -26 -174 -292 -433 -0 -0 -0 -0 -0 -0 -0 -0 -0 -0 -0 -0 -0 -0 -0 -0 -0 -0 -0 -0 -0 -0 -0 -0 -0 -0 -0 -0 -0
-0 -0 -0 -0 -0 -0 -0 -0 -230 -242 -80 -104 -282 -487 -79 -0 -0 -0 -0 -0 -0 -0 -0 -0 -0 -0 -0 -0 -0 -0 -0 -0 -0 -0 -0 -0 -0 -0 -0 -0 -0 -0 -0
-0 -0 -0 -0 -0 -0 -0 -0 -0 -46 -170 -32 -240 -460 -609 -0 -0 -0 -0 -0 -0 -0 -0 -0 -0 -0 -0 -0 -0 -0 -0 -0 -0 -0 -0 -0 -0 -0 -0 -0 -0 -0 -0
-0 -0 -0 -0 -0 -0 -0 -0 -0 -0 -0 -8 -54 -336 -408 -626 -0 -0 -0 -0 -0 -0 -0 -0 -0 -0 -0 -0 -0 -0 -0 -0 -0 -0 -0 -0 -0 -0 -0 -0 -0 -0 -0
-0 -0 -0 -0 -0 -0 -0 -0 -0 -0 -0 -0 -12 -60 -291 -382 -0 -0 -0 -0 -0 -0 -0 -0 -0 -0 -0 -0 -0 -0 -0 -0 -0 -0 -0 -0 -0 -0 -0 -0 -0 -0 -0
-0 -0 -0 -0 -0 -0 -0 -0 -1 -0 -0 -0 -0 -78 -152 -280 -123 -0 -0 -0 -0 -0 -0 -0 -0 -0 -0 -0 -0 -0 -0 -0 -0 -0 -0 -0 -0 -0 -0 -0 -0 -0 -0
-0 -0 -0 -0 -0 -0 -1 -2 -2 -0 -0 -0 -0 -0 -5 -169 -0 -0 -0 -0 -0 -0 -0 -0 -0 -0 -0 -0 -0 -0 -0 -0 -0 -0 -0 -0 -0 -0 -0 -0 -0 -0 -0
-0 -0 -0 -0 -0 -0 -0 -1 -2 -0 -0 -0 -0 -0 -0 -33 -0 -0 -0 -0 -0 -0 -0 -0 -0 -0 -0 -0 -0 -0 -0 -0 -0 -0 -0 -0 -0 -0 -0 -0 -0 -0 -0
-0 -0 -0 -0 -0 -0 -3 -2 -0 -2 -1 -8 -25 -0 -0 -7 -63 -0 -0 -0 -0 -0 -0 -0 -0 -0 -0 -0 -0 -0 -0 -0 -0 -0 -0 -0 -0 -0 -0 -0 -0 -0 -0
-0 -0 -0 -0 -0 -1 -1 -48 -82 -77 -19 -0 -0 -0 -0 -24 -0 -0 -0 -0 -0 -0 -0 -0 -0 -0 -0 -0 -0 -0 -0 -0 -0 -0 -0 -0 -0 -0 -0 -0 -0 -0 -0
-0 -0 -0 -0 -0 -0 -2 -2 -88 -167 -0 -0 -0 -0 -0 -2 -0 -0 -0 -0 -0 -0 -0 -0 -0 -0 -0 -0 -0 -0 -0 -0 -0 -0 -0 -0 -0 -0 -0 -0 -0 -0 -0
-0 -0 -0 -0 -0 -3 -24 -3 -119 -157 -0 -0 -0 -0 -0 -0 -0 -0 -0 -0 -0 -0 -0 -0 -0 -0 -0 -0 -0 -0 -0 -0 -0 -0 -0 -0 -0 -0 -0 -0 -0 -0 -0
-0 -8 -1 -4 -6 -51 -51 -0 -113 -0 -0 -0 -0 -0 -0 -0 -0 -0 -0 -0 -0 -0 -0 -0 -0 -0 -0 -0 -0 -0 -0 -0 -0 -0 -0 -0 -0 -0 -0 -0 -0 -0 -0
-0 -0 -8 -0 -0 -0 -0 -56 -41 -50 -0 -0 -0 -0 -0 -0 -0 -0 -0 -0 -0 -0 -0 -0 -0 -0 -0 -0 -0 -0 -0 -0 -0 -0 -0 -0 -0 -0 -0 -0 -0 -0 -0
-5 -0 -0 -0 -1 -2 -1 -1 -40 -1 -0 -0 -0 -0 -0 -0 -0 -0 -0 -0 -0 -0 -0 -0 -0 -0 -0 -0 -0 -0 -0 -0 -0 -0 -0 -0 -0 -0 -0 -0 -0 -0 -0
-4 -0 -0 -1 -0 -0 -0 -0 -0 -1 -0 -0 -0 -0 -0 -0 -0 -0 -0 -0 -0 -0 -0 -0 -0 -0 -0 -0 -0 -0 -0 -0 -0 -0 -0 -0 -0 -0 -0 -0 -0 -0 -0
-0 -0 -0 -0 -0 -0 -0 -8 -5 -1 -0 -0 -0 -0 -0 -0 -0 -0 -0 -0 -0 -0 -0 -0 -0 -0 -0 -0 -0 -0 -0 -0 -0 -0 -0 -0 -0 -0 -0 -0 -0 -0 -0
-0 -0 -0 -0 -0 -0 -1 -0 -5 -1 -0 -0 -0 -0 -0 -0 -0 -0 -0 -0 -0 -0 -0 -0 -0 -0 -0 -0 -0 -0 -0 -0 -0 -0 -0 -0 -0 -0 -0 -0 -0 -0 -0
-0 -0 -0 -0 -0 -0 -0 -0 -0 -0 -0 -0 -0 -0 -0 -0 -0 -0 -0 -0 -0 -0 -0 -0 -0 -0 -0 -0 -0 -0 -0 -0 -0 -0 -0 -0 -0 -0 -0 -0 -0 -0 -0
-0 -1 -1 -0 -0 -0 -0 -0 -0 -0 -0 -0 -0 -0 -0 -0 -0 -0 -0 -0 -0 -0 -0 -0 -0 -0 -0 -0 -0 -0 -0 -0 -0 -0 -0 -0 -0 -0 -0 -0 -0 -0 -0
-0 -1 -0 -0 -0 -0 -0 -0 -0 -0 -0 -0 -0 -0 -0 -0 -0 -0 -0 -0 -0 -0 -0 -0 -0 -0 -0 -0 -0 -0 -0 -0 -0 -0 -0 -0 -0 -0 -0 -0 -0 -0 -0
-1 -1 -0 -0 -0 -0 -0 -0 -0 -0 -0 -0 -0 -0 -0 -0 -0 -0 -0 -0 -0 -0 -0 -0 -0 -0 -0 -0 -0 -0 -0 -0 -0 -0 -0 -0 -0 -0 -0 -0 -0 -0 -0
-1 -0 -0 -0 -0 -0 -0 -0 -0 -0 -0 -0 -0 -0 -0 -0 -0 -0 -0 -0 -0 -0 -0 -0 -0 -0 -0 -0 -0 -0 -0 -0 -0 -0 -0 -0 -0 -0 -0 -0 -0 -0 -0
-0 -0 -0 -0 -0 -0 -0 -0 -0 -0 -0 -0 -0 -0 -0 -0 -0 -0 -0 -0 -0 -0 -0 -0 -0 -0 -0 -0 -0 -0 -0 -0 -0 -0 -0 -0 -0 -0 -0 -0 -0 -0 -0
-0 -0 -0 -0 -0 -0 -0 -0 -0 -0 -0 -0 -0 -0 -0 -0 -0 -0 -0 -0 -0 -0 -0 -0 -0 -0 -0 -0 -0 -0 -0 -0 -0 -0 -0 -0 -0 -0 -0 -0 -0 -0 -1
Wind_Speed
21 24 29 30 30 29 30 30 28 22 17 18 19 21 21 22 22 22 21 20 20 20 20 19 18 17 17 16 15 13 13 11 9 7 8 10 12 9 8 7 7 7 9
25 30 32 33 34 35 35 34 33 30 22 22 23 25 27 27 25 23 23 22 22 23 23 22 20 19 18 17 17 16 15 14 12 12 10 14 14 12 10 8 7 7 8
31 35 38 38 38 38 38 38 38 37 35 26 26 28 28 30 29 28 26 26 25 25 25 25 23 22 20 20 19 19 18 18 17 14 15 16 19 11 13 9 8 7 9
36 39 40 40 41 41 40 41 41 42 40 30 32 31 32 33 33 34 31 30 29 28 26 26 26 24 22 21 20 20 20 18 20 18 19 14 15 18 18 12 9 7 9
39 41 42 42 43 41 42 44 46 44 44 43 36 38 39 39 35 34 34 33 31 31 29 27 26 26 25 23 20 20 22 21 21 20 18 16 17 16 17 14 11 10 10
41 41 42 43 43 43 42 43 45 47 47 48 42 43 44 43 42 38 35 34 34 33 33 31 28 27 26 25 22 21 22 21 22 20 19 18 18 17 18 17 12 10 11
42 44 46 46 47 47 46 46 46 48 49 51 52 49 46 45 45 42 39 36 36 35 35 33 32 29 27 25 23 23 23 23 23 21 18 17 17 19 20 13 12 11 12
45 48 47 49 48 48 48 49 47 50 51 53 55 56 55 47 44 43 41 39 37 36 34 35 34 31 28 26 25 24 23 21 22 21 19 18 20 24 20 14 12 12 16
50 51 50 50 50 51 52 51 49 51 53 52 53 57 59 51 45 41 40 39 36 35 34 34 35 33 30 27 25 23 26 24 22 19 22 18 19 18 23 15 13 11 12
54 53 53 52 51 51 50 49 49 52 53 56 53 56 58 49 41 38 36 36 35 32 30 31 33 34 31 28 25 24 21 21 22 20 19 16 16 16 21 16 13 15 16
53 54 54 51 51 49 50 49 50 51 50 51 52 52 54 39 34 32 32 31 30 28 29 29 31 32 32 27 26 24 22 21 18 16 18 16 15 15 14 17 14 15 14
50 50 50 50 51 51 51 49 51 52 53 50 55 51 49 41 29 29 30 27 26 27 27 27 28 29 29 26 26 25 20 19 15 18 14 16 13 12 14 15 15 13 12
49 50 50 51 49 50 50 51 53 55 52 52 46 49 49 37 33 29 27 27 27 28 27 27 27 28 28 27 25 22 19 15 13 11 11 16 15 14 15 16 11 9 8
47 49 51 49 53 54 55 57 55 53 55 47 42 38 44 32 28 28 28 26 25 26 27 27 26 26 25 23 21 19 17 14 12 11 11 12 15 14 16 15 8 8 6
50 52 52 54 52 55 59 56 53 53 53 45 30 13 33 28 24 21 25 23 25 25 25 25 24 24 23 22 20 19 14 13 12 12 11 11 11 13 14 9 7 6 5
50 50 52 55 55 58 57 55 53 51 47 42 21 7 12 25 20 18 22 25 27 24 22 21 21 21 21 20 16 14 13 13 13 12 10 9 8 7 6 6 6 6 5
43 48 55 59 59 55 55 53 50 47 44 42 13 8 9 25 18 16 18 22 18 16 17 18 18 18 18 18 16 14 12 11 12 12 10 9 10 9 8 6 4 6 7
43 55 52 29 47 52 52 48 45 44 40 37 20 5 9 15 19 13 12 11 15 14 19 16 17 16 15 15 13 11 12 12 12 11 10 8 7 7 5 5 6 7 9
51 51 50 42 52 50 46 44 40 42 38 31 23 11 8 7 11 8 8 8 9 8 9 13 11 11 12 13 13 12 12 11 7 9 7 6 6 6 6 5 5 5 7
50 52 51 42 45 45 41 39 40 40 40 29 16 3 5 9 11 14 15 7 4 7 7 7 7 9 11 12 12 10 8 11 6 6 6 6 4 4 5 5 5 6 6
48 50 41 46 45 43 38 38 38 37 37 33 17 10 6 9 12 11 13 11 14 9 5 6 7 8 12 14 12 7 8 8 7 7 7 5 5 4 4 6 6 6 5
48 42 44 47 45 40 37 39 39 36 34 31 18 12 3 4 5 9 7 9 12 11 10 12 5 4 5 7 8 5 5 6 6 8 5 5 5 5 6 7 6 5 7
45 42 44 47 43 38 37 38 37 35 32 28 22 10 8 5 4 9 11 11 5 5 6 5 4 4 4 5 6 4 4 4 4 5 5 5 6 6 6 7 7 8 12
41 40 42 44 41 35 34 32 32 30 27 25 23 12 9 5 3 2 4 5 4 4 5 4 4 5 5 5 6 5 4 5 4 3 4 5 6 8 9 8 10 13 14
37 37 39 41 36 32 32 29 25 23 21 19 17 14 10 4 4 3 2 2 3 3 5 4 4 5 6 6 6 5 6 5 5 4 4 6 7 9 11 12 13 15 16
32 32 30 24 27 28 28 24 21 21 18 15 15 11 10 3 4 2 2 4 4 5 5 3 2 2 2 6 5 4 5 4 4 5 6 8 9 10 12 14 15 17 17
Wind_Direction
326 333 330 327 324 318 310 303 298 292 280 273 269 264 257 256 254 251 239 235 233 227 231 243 245 244 246 244 243 239 238 246 242 254 287 299 302 303 311 326 335 347 352
325 322 322 321 318 314 312 308 302 296 282 278 272 272 273 269 261 256 249 244 232 233 236 237 237 238 244 240 237 237 237 243 231 252 265 281 290 288 296 306 316 328 343
322 320 318 317 315 315 314 310 307 300 292 277 279 275 276 277 268 260 250 242 235 234 236 241 242 235 241 242 237 235 232 235 232 237 275 277 284 267 283 289 298 315 326
319 319 318 318 315 314 314 313 310 304 298 282 277 272 271 269 269 268 261 248 238 237 234 238 242 239 243 241 239 237 236 235 232 248 266 281 291 276 278 275 285 302 316
321 321 319 318 317 316 314 312 311 307 302 297 279 275 272 274 272 268 263 253 243 238 236 235 237 239 242 244 237 238 239 244 238 244 249 262 280 278 279 265 266 289 307
321 322 323 321 320 319 319 317 313 309 306 298 292 277 274 273 272 267 263 257 253 242 238 236 236 239 241 241 240 240 241 246 246 247 248 254 263 275 268 274 258 271 292
323 322 321 321 319 319 319 319 316 312 309 304 297 290 275 272 269 265 261 258 255 247 239 234 236 237 239 240 239 241 240 244 251 243 245 262 262 277 266 262 258 267 291
321 320 321 321 320 319 318 318 318 314 311 306 299 295 287 270 267 264 261 259 255 250 242 235 234 237 237 237 240 242 242 242 248 253 258 259 270 273 260 257 245 265 292
319 318 319 320 320 319 317 317 314 313 313 310 304 299 291 274 264 262 258 259 255 251 243 236 233 232 232 233 234 239 240 246 246 253 259 264 267 260 262 256 247 262 284
318 318 319 319 319 319 320 319 316 312 311 312 310 303 297 280 263 259 256 255 254 250 239 236 233 232 232 230 233 240 242 242 248 249 249 252 249 255 258 253 253 273 287
318 318 318 319 320 319 319 319 318 318 314 313 315 308 300 281 262 254 252 251 249 242 236 234 234 232 230 230 235 235 239 239 250 254 245 248 251 249 248 250 262 284 282
319 320 320 320 320 318 316 316 316 318 313 314 301 307 305 282 261 258 252 248 242 240 235 234 232 229 227 230 228 225 241 230 229 246 240 242 241 237 252 260 273 274 277
321 321 321 319 318 316 316 316 311 314 319 311 318 306 303 286 267 260 253 248 243 239 235 232 230 227 225 227 219 222 232 235 235 228 225 231 242 247 256 259 268 261 265
320 321 319 321 317 314 314 310 307 312 314 317 320 318 316 287 265 260 254 248 243 238 236 234 232 225 221 219 223 223 234 219 220 224 210 219 243 250 253 260 248 248 251
319 318 318 319 317 313 308 305 302 306 314 318 319 290 329 294 270 260 253 248 244 239 235 231 226 221 216 217 221 230 206 198 194 198 201 227 238 249 259 245 238 233 237
320 321 321 319 315 308 303 300 297 302 314 321 329 321 349 316 281 269 257 248 244 239 233 226 217 215 219 210 204 214 196 195 185 181 198 229 228 249 239 236 247 250 222
325 325 320 316 309 305 299 295 293 296 308 315 329 337 1 319 290 272 260 248 246 231 224 218 212 214 219 201 192 189 203 190 189 201 211 229 241 234 245 251 251 275 285
329 306 302 320 325 312 296 292 286 297 306 315 331 350 10 351 296 276 259 248 234 225 222 209 216 210 208 171 166 181 188 210 219 221 221 222 200 193 198 207 244 267 282
306 311 325 331 321 312 299 287 285 295 304 313 323 329 6 98 113 76 267 237 213 213 205 214 196 187 172 167 165 192 212 219 221 242 228 219 208 193 191 206 222 254 276
311 316 320 334 332 320 301 293 289 290 293 308 325 352 102 127 105 118 103 81 194 200 172 151 176 169 183 176 180 186 203 223 222 231 240 235 209 187 179 210 214 242 256
318 317 334 331 329 312 298 292 292 282 285 283 316 333 124 122 116 97 102 102 110 110 150 152 152 173 141 143 154 194 208 218 220 232 242 236 200 209 230 250 259 254 251
310 330 333 332 318 308 305 300 296 289 284 270 309 311 36 102 98 108 102 110 113 117 124 120 136 201 184 178 173 192 210 200 236 248 243 233 211 229 251 266 269 249 269
314 328 326 322 332 312 305 299 298 294 290 272 287 311 324 281 112 126 125 122 131 137 140 141 151 170 189 182 188 217 197 215 254 254 243 215 220 233 261 266 261 264 276
309 326 323 324 317 311 307 302 310 307 287 277 272 297 316 285 271 218 147 149 166 158 178 187 205 213 221 191 184 213 217 264 271 255 244 224 245 263 268 267 266 274 277
319 324 325 328 316 312 320 314 314 308 291 287 289 284 284 271 272 274 257 189 224 167 160 184 189 195 220 220 196 206 213 229 244 258 241 233 249 260 266 268 270 275 278
303 307 308 302 309 316 327 312 314 328 323 323 303 302 269 270 281 297 316 301 283 275 274 263 221 264 243 167 179 196 193 212 210 249 247 254 256 261 263 266 269 273 278